Location: *
(52.2090°N, 4.1550°W)
Time: 21:52:01
(UTC+00:00)

Cosmos 676 Rocket - Pass Details

Date: 19 July 2019
Orbit: 754 x 785 km, 74.0° (Epoch: 23 August)

Event Time Altitude Azimuth Distance (km) Brightness Sun altitude
Exits shadow 22:08:48 - 184° (S) 2,366 6.1 -11.4°
Reaches altitude 10° 22:09:00 10° 184° (S) 2,290 6.0 -11.4°
Maximum altitude 22:14:03 54° 108° (ESE) 936 4.2 -11.8°
Drops below altitude 10° 22:19:10 10° 32° (NNE) 2,327 6.9 -12.2°
Sets 22:21:37 0° 28° (NNE) 3,263 7.7 -12.4°
